Regional Weather Roundup
Issued by NWS Jackson, KY

Home | Current Version | Previous Version | Text Only | Print | Product List | Glossary Off
Versions: 1 2 3 4 5 6 7 8 9 10 11 12 13 14 15 16 17 18 19 20 21 22 23 24 25 26 27 28 29 30 31 32 33 34 35 36 37 38 39 40 41 42 43 44 45 46 47 48 49 50

000
ASUS43 KJKL 271805
RWRJKL

EAST KENTUCKY HOURLY WEATHER ROUNDUP
NATIONAL WEATHER SERVICE JACKSON KY
100 PM EST THU NOV 27 2014

NOTE: "FAIR" INDICATES FEW OR NO CLOUDS BELOW 12,000 FEET WITH
NO SIGNIFICANT WEATHER AND/OR OBSTRUCTIONS TO VISIBILITY.

* THESE REPORTS ARE NOT UNDER NWS QUALITY CONTROL AND MAY NOT
  REPORT WEATHER SUCH AS PRECIPITATION AND FOG.

KYZ079-080-083-085-087-088-110-112-115-119-120-271900
...EASTERN KENTUCKY...

CITY           SKY/WX    TMP DP  RH WIND       PRES   REMARKS
JACKSON        CLOUDY    31  22  69 NW8       30.24S WCI  23
6HR MIN TEMP:  31; 6HR MAX TEMP:  33; 6HR PCP:  0.01;

LONDON         CLOUDY    32  26  78 NW13      30.27F WCI  22
6HR MIN TEMP:  32; 6HR MAX TEMP:  35; 6HR PCP: TRACE;

SOMERSET*      CLOUDY    32  27  80 NW9       30.32S WCI  24
MONTICELLO*    CLOUDY    34  28  79 NW12      30.35R WCI  25
6HR MIN TEMP:  34; 6HR MAX TEMP:  35; 6HR PCP: TRACE;

HARLAN APT*    CLOUDY    32  28  86 W7        30.23R WCI  26
BLACK MTN*       N/A     23  23 100 NE1         N/A
PIKEVILLE APT* CLOUDY    32  25  74 NW13      30.20S WCI  22
BIG SANDY*     CLOUDY    33  25  75 NW6       30.22S WCI  27
6HR MIN TEMP:  32; 6HR MAX TEMP:  35;

MOREHEAD APT*  CLOUDY    32  21  64 W5G12     30.27F WCI  27
$$

KYZ035-036-041-042-044-050-067-078-099-271900
...CENTRAL KENTUCKY...

CITY           SKY/WX    TMP DP  RH WIND       PRES   REMARKS
MT STERLING*   CLOUDY    32  23  69 NW13      30.29S WCI  22
FLEMING/MASON* CLOUDY    32  22  67 NW9G17    30.26F WCI  24
DANVILLE*      CLOUDY    30  27  86 NW9       30.32S WCI  22
RICHMOND*      CLOUDY    30  25  80 W12G17    30.29S WCI  21
LEXINGTON      CLOUDY    32  22  66 NW10      30.30S WCI  24
6HR MIN TEMP:  28; 6HR MAX TEMP:  33;

FRANKFORT      CLOUDY    33  21  61 W9        30.31R WCI  25
6HR MIN TEMP:  29; 6HR MAX TEMP:  34;

$$

KYZ091>093-OHZ055-061-077-WVZ005-015-034-035-042-271900
...SOUTHERN OHIO/WEST VIRGINIA...

CITY           SKY/WX    TMP DP  RH WIND       PRES   REMARKS
COVINGTON      FLURRIES  33  19  56 W14G28    30.27F WCI  23
COLUMBUS       CLOUDY    31  22  69 NW14      30.19S WCI  21
DAYTON         CLOUDY    33  21  61 W15       30.24S WCI  23
WILMINGTON     CLOUDY    32  19  58 NW15G22   30.22F WCI  22
HUNTINGTON     CLOUDY    34  23  64 W8        30.21S WCI  27
CHARLESTON     CLOUDY    34  25  69 W13G20    30.18S WCI  25
PINEVILLE*     CLOUDY    35  29  79 MISG      30.19S
BECKLEY        CLOUDY    30  22  72 NW13      30.09R WCI  20
BLUEFIELD      CLOUDY    31  23  72 W14G23    30.08S WCI  21
$$

VAZ002-007-008-TNZ017-027-036-066-071-271900
...SOUTHWEST VIRGINIA/EAST TENNESSEE...

CITY           SKY/WX    TMP DP  RH WIND       PRES   REMARKS
WISE*          CLOUDY    30  30 100 W8        30.15S WCI  23
JONESVILLE*    CLOUDY    36  28  75 W7        30.25S WCI  30
ABINGDON*      CLOUDY    35  30  83 NW7       30.16S WCI  29
BRISTOL        CLOUDY    37  30  75 W7        30.20R WCI  32
KNOXVILLE      CLOUDY    38  31  76 W10       30.27F WCI  31
OAK RIDGE      CLOUDY    40  29  64 W5        30.29F
CROSSVILLE     CLOUDY    34  26  72 NW14G20   30.28S WCI  25
NASHVILLE      CLOUDY    37  27  67 NW9       30.41S WCI  30
$$

...KEY TO REMARKS...
VSB - VISIBILITY IN MILES
WCI - WIND CHILL INDEX
HX  - HEAT INDEX

$$


USA.gov is the U.S. government's official web portal to all federal, state and local government web resources and services.